[[{"header":{"parameterUnit":"m.s-1","parameterCategory":1,"la1":30.2991,"la2":30.254,"lo1":-89.0895,"lo2":-89.0444,"dy":0.0017,"dx":0.0017,"nx":28,"ny":28,"refTime":"2025-06-14T09:00:00:Z","depth":0,"parameterNumber":2,"parameterNumberName":"U-component_of_WINDS"},"data":[0,0,0,0,0,0,0,0,0,0,0,0,0,0,0,0,0,0,0,0,0,0,0,0,0,0,0,0,0,0,0,0,0,0,0,0,0,0,0,0,0,0,0,0,0,0,0,0,0,0,0,0,0,0,0,0,0,0,0.993,0.993,0,0.9924,0.9924,0.9924,0.988,0.9879,0.9878,0.9877,0.9874,0.9875,0.9875,0,0,0,0,0,0,0,0,0,0,0,0,0,0.9904,0.9904,0.993,0.993,0.993,0.9924,0.9924,0.9924,0.9881,0.9879,0.9878,0.9877,0.9873,0.9874,0.9876,0,0,0,0,0,0,0,0,0,0,0,0,0,0.9908,0.9905,0.993,0.9907,0.9905,0.9924,0.9924,0.9924,0.9881,0.9879,0.9878,0.9876,0.9873,0.9874,0.9876,0.9917,0,0,0.988,0.988,0,0,0,0,0,0,0,0,0.9908,0.9909,0.9911,0.9909,0.9906,0.9901,0.9913,0.9922,0.9881,0.989,0.9877,0.9875,0.9884,0.9885,0.9887,0.9916,0.9916,0.988,0.9881,0.9881,0.9882,0,0,0,0,0,0,0,0.9908,0.9909,0.9928,0.9911,0.9908,0.9898,0.9897,0.9915,0.9897,0.9889,0.9886,0.9886,0.9883,0.9886,0.9887,0.9916,0.988,0.9881,0.9882,0.9883,0.9976,0.9978,0,0,0,0,0,0,0.991,0.9909,0.9928,0.9927,0.9903,0.9899,0.9898,0.9905,0.9896,0.9893,0.9887,0.9884,0.9884,0.9885,0.9887,0.9932,0.9881,0.9883,0.9883,0.9975,0.9977,0.9979,0,0,0,0,0,0,0.991,0.9912,0.9928,0.9917,0.9919,0.9902,0.9909,0.9905,0.9908,0.9895,0.9891,0.9894,0.9883,0.9885,0.9909,0.9931,0.9883,0.9885,0.9973,0.9975,0.9978,1.0025,0,0,0,0,0,0,0.9909,0.9913,0.9928,0.9918,0.9919,0.995,0.9911,0.9906,0.9911,0.9906,0.99,0.9897,0.9882,0.9907,0.991,0.9932,0.9886,0.9971,0.9974,0.9977,1.0021,1.0028,1.0035,0,0,0,0,0,0.9909,0.9942,0.9929,0.9931,0.9938,0.9952,0.9952,0.9934,0.9913,0.9928,0.9919,0.9897,0.9929,0.991,0.9913,0.9936,0.9969,0.9973,0.9977,1.0018,1.0027,1.0035,0,0,0,0,0,0,0.9956,0.994,0.9926,0.9957,0.9956,0.9944,0.9963,0.9944,0.995,0.9945,0.9922,0.9921,0.9949,0.9945,0.9924,0.9974,0.9945,0.995,0.9975,0.9984,0.9991,0.999,0.9887,0,0,0,0,0,0.997,0.9982,0.9968,0.9997,0.9997,0.998,0.9985,0.9971,0.9969,0.9969,0.9961,0.9961,0.997,0.9977,0.9985,1.0021,1.0018,1.0038,1.0045,1.0051,1.0054,1.0071,1.0079,0.9991,0.9991,0.9991,0,0,0.9999,0.9992,1.0001,1.0006,1.0003,1.0016,0.998,0.9996,1.0004,0.9971,0.9993,0.9988,0.9985,1.0015,1.0027,1.0013,1.0078,1.0055,1.006,1.0061,1.0076,1.0084,1.0092,0.9994,0.9993,0.9993,0,0,1.0058,1.0055,1.0077,1.0075,1.0071,1.0059,1.0065,1.0056,1.0051,1.0072,1.0047,1.0058,1.0075,1.0074,1.0076,1.0133,1.0113,1.0137,1.0173,1.0189,1.0196,1.0202,1.0221,1.0228,1.0141,1.0141,1.0141,0,1.0095,1.0113,1.0092,1.0108,1.011,1.008,1.0102,1.0101,1.0101,1.0103,1.0087,1.0106,1.0103,1.0131,1.0145,1.0148,1.0153,1.0137,1.0197,1.0202,1.0208,1.0226,1.0233,1.0144,1.0143,1.0143,1.0143,0,1.0157,1.017,1.0189,1.0187,1.0192,1.0212,1.0193,1.0201,1.0186,1.0176,1.0197,1.0192,1.0198,1.0204,1.019,1.0229,1.022,1.0201,1.0171,1.0219,1.0235,1.0242,1.0148,1.0147,1.0146,1.0145,0,0,1.0246,1.0231,1.0239,1.0237,1.023,1.0239,1.0257,1.0262,1.0268,1.0269,1.0283,1.0297,1.0279,1.0281,1.0267,1.0281,1.0325,1.026,1.0259,1.0271,1.0366,1.038,1.0388,1.0312,1.0314,1.0315,1.0366,0,1.0301,1.033,1.0311,1.0343,1.0353,1.0324,1.034,1.0337,1.0328,1.0336,1.0327,1.0337,1.0312,1.0313,1.0326,1.0317,1.0344,1.0313,1.0324,1.0325,1.0324,1.0397,1.0412,1.046,1.0372,1.0373,1.0374,0,1.0369,1.0371,1.0404,1.0393,1.0397,1.0411,1.0413,1.0421,1.0417,1.041,1.0412,1.0393,1.041,1.0381,1.0404,1.0383,1.0387,1.0383,1.0384,1.0384,1.0352,1.0397,1.0476,1.0482,1.0384,1.0384,1.0383,0,1.0428,1.0439,1.0459,1.0459,1.0448,1.0458,1.0454,1.0449,1.0452,1.0454,1.0456,1.0461,1.0463,1.0467,1.045,1.0431,1.0474,1.0445,1.0468,1.0468,1.0477,1.0476,1.0556,1.0482,1.0482,1.0482,1.0482,0,1.0491,1.0511,1.0485,1.0498,1.052,1.0498,1.0521,1.0514,1.0509,1.0519,1.0496,1.0506,1.0484,1.0492,1.048,1.0499,1.0501,1.0495,1.0491,1.0496,1.0497,1.0497,1.0493,1.0484,1.0483,1.0483,1.0483,0,1.056,1.0543,1.0563,1.055,1.0548,1.0564,1.0553,1.0564,1.0554,1.0567,1.0569,1.0553,1.0561,1.0545,1.0552,1.0543,1.057,1.0562,1.0571,1.0568,1.0591,1.0588,1.0672,1.0682,1.0604,1.0604,1.0605,0,1.06,1.0615,1.0603,1.0608,1.0604,1.0613,1.0616,1.0595,1.0599,1.0596,1.0607,1.0613,1.0616,1.0631,1.062,1.0625,1.0615,1.0645,1.0616,1.062,1.0614,1.0612,1.0613,1.065,1.0651,1.0652,1.0652,0,1.0672,1.0663,1.0668,1.067,1.0673,1.0674,1.0673,1.0679,1.0657,1.0663,1.067,1.0673,1.0679,1.0685,1.0687,1.0683,1.0664,1.0662,1.0667,1.0671,1.0675,1.0672,1.0585,1.0659,1.0659,1.0658,1.0658,1.0658,1.0727,1.0738,1.0731,1.0737,1.0733,1.0733,1.0742,1.0732,1.0737,1.074,1.0728,1.0738,1.0733,1.0733,1.0731,1.0739,1.0726,1.0734,1.0736,1.0738,1.074,1.0675,1.0739,1.0739,1.0739,1.0739,1.0739,0,1.0796,1.079,1.0796,1.0794,1.0799,1.078,1.0778,1.0783,1.0791,1.0788,1.0792,1.08,1.0805,1.0794,1.0798,1.0806,1.0798,1.0808,1.0806,1.0805,1.0753,1.0747,1.0815,1.0815,1.0815,1.0815,1.0815,1.0815,1.0833,1.085,1.084,1.0855,1.0849,1.0858,1.0858,1.0857,1.0854,1.0864,1.0868,1.086,1.0854,1.0857,1.0861,1.0858,1.0859,1.0872,1.0866,1.0817,1.0809,1.0802,1.0796,1.0873,1.0873,1.0917,1.0918,1.0918]},{"header":{"parameterUnit":"m.s-1","parameterCategory":1,"la1":30.2991,"la2":30.254,"lo1":-89.0895,"lo2":-89.0444,"dy":0.0017,"dx":0.0017,"nx":28,"ny":28,"refTime":"2025-06-14T09:00:00:Z","depth":0,"parameterNumber":3,"parameterNumberName":"V-component_of_WINDS"},"data":[0,0,0,0,0,0,0,0,0,0,0,0,0,0,0,0,0,0,0,0,0,0,0,0,0,0,0,0,0,0,0,0,0,0,0,0,0,0,0,0,0,0,0,0,0,0,0,0,0,0,0,0,0,0,0,0,0,0,5.0945,5.0946,0,5.1079,5.1081,5.1082,5.1064,5.1062,5.106,5.1058,5.1188,5.1194,5.1199,0,0,0,0,0,0,0,0,0,0,0,0,0,5.0666,5.0671,5.0945,5.0946,5.0948,5.1079,5.1081,5.1082,5.1065,5.1062,5.1059,5.1057,5.1187,5.1193,5.12,0,0,0,0,0,0,0,0,0,0,0,0,0,5.0792,5.0673,5.0944,5.0955,5.0957,5.1078,5.1081,5.1083,5.1065,5.1062,5.1059,5.1055,5.1185,5.1193,5.1201,5.1318,0,0,5.1226,5.123,0,0,0,0,0,0,0,0,5.0785,5.0802,5.0952,5.0955,5.0957,5.1052,5.103,5.1161,5.1066,5.1024,5.1058,5.1054,5.1145,5.1156,5.1189,5.1324,5.1329,5.1227,5.1232,5.1235,5.1238,0,0,0,0,0,0,0,5.0776,5.0796,5.0998,5.0954,5.0957,5.0951,5.0965,5.1055,5.1101,5.1027,5.1026,5.1043,5.1146,5.1181,5.1192,5.1331,5.1227,5.1234,5.1239,5.1242,5.1567,5.157,0,0,0,0,0,0,5.0766,5.0789,5.0993,5.1002,5.0862,5.0959,5.0975,5.1025,5.11,5.1109,5.1046,5.1042,5.1168,5.1182,5.1196,5.1337,5.1235,5.1243,5.1248,5.1563,5.1568,5.1572,0,0,0,0,0,0,5.076,5.0784,5.0988,5.0895,5.0921,5.0967,5.1023,5.1029,5.1064,5.1114,5.1121,5.1073,5.1166,5.1184,5.1288,5.1341,5.1247,5.1254,5.1559,5.1565,5.157,5.162,0,0,0,0,0,0,5.0752,5.0782,5.0829,5.0897,5.0926,5.108,5.1027,5.1034,5.1079,5.1075,5.1142,5.115,5.1165,5.1275,5.1296,5.1351,5.1261,5.1554,5.1561,5.1568,5.1613,5.1626,5.1637,0,0,0,0,0,5.0742,5.0836,5.0831,5.0856,5.0986,5.1083,5.1099,5.1117,5.1083,5.1129,5.1161,5.1147,5.1332,5.1286,5.1309,5.1367,5.1551,5.1559,5.1567,5.1608,5.1624,5.1637,0,0,0,0,0,0,5.0771,5.0845,5.0841,5.096,5.1016,5.108,5.1138,5.1133,5.1197,5.1191,5.1208,5.1223,5.1327,5.1357,5.1305,5.1483,5.1437,5.145,5.146,5.1475,5.1486,5.1476,5.1268,0,0,0,0,0,5.0792,5.0867,5.0927,5.1027,5.1055,5.1092,5.1135,5.1144,5.1201,5.1223,5.1263,5.1317,5.1387,5.1433,5.15,5.1618,5.1631,5.1669,5.1681,5.169,5.1701,5.1764,5.1781,5.1599,5.1599,5.1598,0,0,5.0835,5.0885,5.0931,5.1034,5.1078,5.1153,5.1112,5.1193,5.1248,5.1235,5.1335,5.1366,5.1427,5.1538,5.1589,5.1566,5.1754,5.1701,5.1708,5.1714,5.1774,5.1791,5.1806,5.1604,5.1603,5.1602,0,0,5.0951,5.0998,5.1085,5.113,5.1198,5.1222,5.1243,5.1308,5.1329,5.143,5.1422,5.1486,5.1607,5.1651,5.1688,5.1821,5.181,5.1842,5.1903,5.1964,5.1979,5.1991,5.2037,5.2053,5.1853,5.1853,5.1853,0,5.0996,5.1111,5.113,5.1213,5.1257,5.1251,5.1339,5.1381,5.1466,5.1496,5.147,5.1621,5.1662,5.1782,5.1814,5.1846,5.1868,5.1834,5.1975,5.1988,5.2,5.2044,5.2061,5.1856,5.1856,5.1856,5.1855,0,5.1161,5.124,5.1302,5.1387,5.1439,5.1523,5.1553,5.1602,5.1607,5.1633,5.1734,5.1783,5.186,5.1889,5.1893,5.2009,5.1993,5.1972,5.1925,5.2021,5.2062,5.2079,5.1861,5.186,5.1859,5.1858,0,0,5.1299,5.1394,5.1416,5.1454,5.1528,5.1589,5.1671,5.1749,5.179,5.1848,5.1917,5.2019,5.1999,5.2042,5.2051,5.2105,5.2205,5.2077,5.2078,5.2097,5.2333,5.2348,5.2367,5.2198,5.2202,5.2204,5.2327,0,5.1421,5.1571,5.159,5.1722,5.1794,5.1789,5.1861,5.1913,5.194,5.2003,5.2031,5.2103,5.2072,5.2098,5.2151,5.2181,5.2252,5.2173,5.226,5.2262,5.2243,5.2389,5.2406,5.252,5.2344,5.2347,5.2349,0,5.1584,5.1649,5.1789,5.1852,5.1883,5.1948,5.2019,5.2081,5.2138,5.2153,5.2202,5.2204,5.2287,5.2238,5.2351,5.2297,5.2334,5.2354,5.2359,5.2366,5.231,5.2399,5.2557,5.2573,5.2374,5.2372,5.2371,0,5.1669,5.1791,5.189,5.1923,5.2,5.2045,5.2079,5.2134,5.2178,5.224,5.2268,5.2338,5.2376,5.2429,5.2448,5.2411,5.256,5.2513,5.2573,5.2572,5.2604,5.2601,5.2768,5.263,5.2629,5.2629,5.2629,0,5.1803,5.1888,5.1929,5.199,5.2084,5.2105,5.2197,5.2228,5.2277,5.2342,5.2341,5.2401,5.2425,5.2488,5.2504,5.2595,5.2612,5.2624,5.2627,5.2624,5.2622,5.2647,5.2639,5.2634,5.2633,5.2632,5.2631,0,5.1913,5.1945,5.2052,5.2116,5.2134,5.2201,5.2254,5.2312,5.2337,5.2419,5.2439,5.2479,5.2553,5.2579,5.2669,5.2679,5.2784,5.2781,5.2765,5.2765,5.2823,5.2817,5.301,5.3036,5.2882,5.2884,5.2885,0,5.1996,5.2061,5.2133,5.2177,5.2213,5.2285,5.2331,5.2353,5.24,5.2471,5.2519,5.2594,5.2654,5.2773,5.2808,5.2876,5.2873,5.2937,5.2883,5.2877,5.2872,5.2868,5.2873,5.2946,5.2947,5.2949,5.295,0,5.2138,5.2151,5.2219,5.2292,5.2347,5.2405,5.2461,5.2496,5.2527,5.2579,5.2657,5.2704,5.2796,5.2869,5.2939,5.2971,5.2965,5.2967,5.2984,5.298,5.2968,5.2974,5.279,5.2962,5.296,5.296,5.2959,5.2959,5.2236,5.2294,5.2354,5.2428,5.2473,5.2525,5.2582,5.2616,5.2681,5.2759,5.2768,5.2851,5.2905,5.2998,5.3033,5.3097,5.3079,5.3104,5.311,5.3115,5.3119,5.2959,5.3109,5.3109,5.3109,5.3109,5.3108,0,5.2378,5.2416,5.2485,5.2564,5.2622,5.2614,5.2675,5.2724,5.2797,5.285,5.291,5.2998,5.3068,5.3109,5.318,5.3222,5.3221,5.324,5.3236,5.3243,5.3132,5.311,5.3239,5.3239,5.3239,5.3239,5.3239,5.3239,5.2458,5.2555,5.2574,5.2692,5.2729,5.2812,5.2847,5.2894,5.2936,5.3035,5.3095,5.3122,5.3169,5.3242,5.3306,5.3316,5.3341,5.3361,5.3369,5.3264,5.3251,5.3238,5.3217,5.3367,5.3367,5.3474,5.3475,5.3476]}]]